Regional Weather Roundup
Issued by NWS

Home | Current Version | Previous Version | Text Only | Print | Product List | Glossary Off
Versions: 1 2 3 4 5 6 7 8 9 10 11 12 13 14 15 16 17 18 19 20 21 22 23 24 25 26 27 28 29 30 31 32 33 34 35 36 37 38 39 40 41 42 43 44 45 46 47 48 49 50

000
ASUS45 KABQ 200610
RWRNM
NEW MEXICO REGIONAL WEATHER ROUNDUP
NATIONAL WEATHER SERVICE ALBUQUERQUE NM
1200 AM MDT SUN AUG 20 2017

NOTE: "FAIR" MEANS FEW OR NO CLOUDS BELOW 12,000 FEET AGL WITH NO
       SIGNIFICANT WEATHER OR OBSTRUCTIONS TO VISION.

      THIS PRODUCT IS RELEASED AS TWO VERSIONS.  ONE VERSION NEAR
      THE TOP OF THE HOUR CONTAINING PRELIMINARY DATA FROM ALBUQUERQUE
      AND OTHER STATIONS.  A FINAL VERSION WITH ADDITIONAL DATA IS
      ISSUED ABOUT 10 MINUTES AFTER THE HOUR.

NMZ501-503-504-510>518-200700-
NORTHWEST PLATEAU/NORTHCENTRAL MOUNTAINS

CITY           SKY/WX    TMP DP  RH WIND       PRES   REMARKS
FARMINGTON     FAIR      70  37  29 E8        30.09R
6HR MIN TEMP:  69; 6HR MAX TEMP:  93;

LOS ALAMOS     FAIR      64  44  47 S7        30.30S
SANTA FE       FAIR      67  47  48 SE13      30.25R
6HR MIN TEMP:  67; 6HR MAX TEMP:  77; 6HR PCP: TRACE;

TAOS           FAIR      58  43  57 N5        30.31S
ANGEL FIRE     MOCLDY    51  44  76 CALM      30.39S

$$
NMZ402-403-502-505>509-200700-
WESTCENTRAL MOUNTAINS/SOUTHWEST MOUNTAINS

CITY           SKY/WX    TMP DP  RH WIND       PRES   REMARKS
GALLUP         FAIR      72  35  25 S8        30.19R
6HR MIN TEMP:  70; 6HR MAX TEMP:  87;

GRANTS         MOCLDY    71  45  38 SE15G22   30.24S
SILVER CITY    FAIR      68  52  57 S9G16     30.23R

$$
NMZ407-409-411-412-200700-
SOUTHERN DESERTS

CITY           SKY/WX    TMP DP  RH WIND       PRES   REMARKS
DEMING         MOCLDY    72  60  66 E18G28    30.19R
6HR MIN TEMP:  71; 6HR MAX TEMP:  83;

LAS CRUCES     CLOUDY    63  60  89 NW15      30.17F
HOLLOMAN AFB   FAIR      71  57  61 E8        30.13R
ALAMOGORDO     FAIR      70  57  64 NE5       30.13R
T OR C         FAIR      75  54  47 SW13      30.17R
6HR MIN TEMP:  74; 6HR MAX TEMP:  88;


$$
NMZ519>523-200700-
CENTRAL VALLEYS/CENTRAL HIGHLANDS

CITY           SKY/WX    TMP DP  RH WIND       PRES   REMARKS
ALBUQUERQUE    CLOUDY    75  45  34 S8        30.17S
6HR MIN TEMP:  75; 6HR MAX TEMP:  84;

MORIARTY ARPT  FAIR      62  57  83 CALM      30.26S
6HR MIN TEMP:  62; 6HR MAX TEMP:  72;

CLINES CORNERS FAIR      61  48  62 N5        30.31R
6HR MIN TEMP:  60; 6HR MAX TEMP:  66;

BELEN          FAIR      72  46  38 S5        30.17F
6HR MIN TEMP:  72; 6HR MAX TEMP:  86;

SOCORRO        FAIR      76  45  33 SE6       30.16R
6HR MIN TEMP:  75; 6HR MAX TEMP:  87;


$$
NMZ524>526-539-540-200700-
SOUTHCENTRAL MOUNTAINS

CITY           SKY/WX    TMP DP  RH WIND       PRES   REMARKS
RUIDOSO        CLOUDY    63  48  59 NW6       30.30R

$$
NMZ527>531-200700-
NORTHEAST HIGHLANDS/NORTHEAST PLAINS

CITY           SKY/WX    TMP DP  RH WIND       PRES   REMARKS
LAS VEGAS      MOCLDY    59  49  69 SW12      30.28F
6HR MIN TEMP:  57; 6HR MAX TEMP:  67;

RATON          FAIR      61  50  67 W3        30.21S
6HR MIN TEMP:  61; 6HR MAX TEMP:  77;

CLAYTON        FAIR      66  54  65 W13       30.10S
6HR MIN TEMP:  65; 6HR MAX TEMP:  75; 6HR PCP:  0.06;


$$
NMZ532>537-200700-
EASTCENTRAL PLAINS

CITY           SKY/WX    TMP DP  RH WIND       PRES   REMARKS
SANTA ROSA     FAIR      70  51  50 NW3       30.13S
TUCUMCARI      FAIR      74  56  53 SW6       30.05S
6HR MIN TEMP:  74; 6HR MAX TEMP:  90;

CANNON AFB     FAIR      71  62  73 S7        30.12F
6HR MIN TEMP:  70; 6HR MAX TEMP:  85;

CLOVIS AIRPORT FAIR      68  63  84 S8        30.11F

$$
NMZ028-029-538-200700-
SOUTHEAST PLAINS

CITY           SKY/WX    TMP DP  RH WIND       PRES   REMARKS
ROSWELL        MOCLDY    77  60  55 E5        30.06F
6HR MIN TEMP:  75; 6HR MAX TEMP:  89;

ARTESIA        FAIR      77  64  65 S8        30.07S
CARLSBAD       MOCLDY    72  68  87 S9        30.05S
6HR MIN TEMP:  72; 6HR MAX TEMP:  77; 6HR PCP: TRACE;

HOBBS          FAIR      73  63  68 SW5       30.08S


$$




USA.gov is the U.S. government's official web portal to all federal, state and local government web resources and services.